Starlink 35525

operational
NORAD ID: 66134 Int'l Des: 2025-237 Owner: SPXS Country: US Constellation: starlink
LEOCIRCULAR

Über Starlink 35525

Beschreibung wird geladen...

Live-Position

3D-Globus wird geladen...

Nächste Überflüge

Höhenverlauf

Altitude vs Time

uPlot chart will show altitude changes over time

Zweizeiliger Elementsatz

1 66134C 25237W 25298.72340278 -.01195500 00000+0 -18747-2 0 2981
2 66134 53.1546 319.2439 0000592 84.2881 116.5887 16.04447815 11
Epoch: 25. Okt. 2025 • Age: 153 hours

Aktueller Status

Höhe 295.7 km
Geschwindigkeit 7.73 km/s
Subsatellitenpunkt -25.96°S, 95.58°E
Startdatum 22. Okt. 2025
Alter 8 days
Typ internet

Technische Details

Klassifizierung Payload
Masse 575.00 kg
Trockenmasse 530.00 kg
Gesamtmasse 575.00 kg
Länge 0.30 m
Durchmesser 4.10 m
Spannweite 29.00 m
Form Box + pan
Hersteller SPXS
Bus-Typ Starlink V2MO
Phasenstatus In Orbit
Besitzer/Staat SPXS/US

Große Konstellationen

Loading constellations...